Location: Dieppe
(49.9230°N, 1.0775°E)
Time: 02:42:32
(UTC+01:00)

ISS - Visible Passes

Search period start: 17 December 2018 00:00
Search period end: 27 December 2018 00:00
Orbit: 401 x 408 km, 51.6° (Epoch: 17 December)

Date Brightness Start Highest point End Pass type
(mag) Time Alt. Az. Time Alt. Az. Time Alt. Az.
23 Dec -0.7 07:47:04 10° S 07:49:18 17° SE 07:51:33 10° E visible
24 Dec -0.3 06:56:38 10° SSE 06:57:17 10° SE 06:57:57 10° ESE visible
25 Dec -1.9 07:38:00 10° SSW 07:40:58 31° SSE 07:43:55 10° E visible
26 Dec -1.2 06:46:20 10° SSW 06:48:49 20° SE 06:51:20 10° E visible
